Location: Mesa
(33.4220°N, 111.8220°W)
Time: 14:25:25
(UTC-07:00)

N. Korean satellite - Pass Details

Date: 22 November 2019
Orbit: 456 x 506 km, 97.2° (Epoch: 06 December)

Event Time Altitude Azimuth Distance (km) Brightness Sun altitude
Rises 05:45:28 0° 22° (NNE) 2,593 10.4 -16.5°
Reaches altitude 10° 05:47:43 10° 32° (NNE) 1,698 9.5 -16.1°
Maximum altitude 05:51:02 32° 97° (E) 857 8.5 -15.4°
Drops below altitude 10° 05:54:17 10° 163° (SSE) 1,662 9.7 -14.8°
Sets 05:56:27 0° 173° (S) 2,528 10.5 -14.3°
